[[{"header":{"parameterUnit":"m.s-1","parameterCategory":1,"la1":30.2991,"la2":30.254,"lo1":-89.0895,"lo2":-89.0444,"dy":0.0017,"dx":0.0017,"nx":28,"ny":28,"refTime":"2024-03-16T03:00:00:Z","depth":0,"parameterNumber":2,"parameterNumberName":"U-component_of_WINDS"},"data":[0,0,0,0,0,0,0,0,0,0,0,0,0,0,0,0,0,0,0,0,0,0,0,0,0,0,0,0,0,0,0,0,0,0,0,0,0,0,0,0,0,0,0,0,0,0,0,0,0,0,0,0,0,0,0,0,0,0,-1.3544,-1.3545,0,-1.3576,-1.3576,-1.3577,-1.3536,-1.3534,-1.3533,-1.3532,-1.3565,-1.3567,-1.3569,0,0,0,0,0,0,0,0,0,0,0,0,0,-1.3449,-1.3451,-1.3544,-1.3545,-1.3545,-1.3576,-1.3576,-1.3577,-1.3536,-1.3534,-1.3533,-1.3531,-1.3564,-1.3567,-1.3569,0,0,0,0,0,0,0,0,0,0,0,0,0,-1.3487,-1.3452,-1.3544,-1.3529,-1.3528,-1.3576,-1.3576,-1.3577,-1.3537,-1.3534,-1.3532,-1.353,-1.3563,-1.3566,-1.357,-1.3635,0,0,-1.358,-1.3581,0,0,0,0,0,0,0,0,-1.3484,-1.349,-1.3531,-1.353,-1.3529,-1.355,-1.3555,-1.3596,-1.3537,-1.3533,-1.3532,-1.3529,-1.3561,-1.3565,-1.3576,-1.3636,-1.3638,-1.358,-1.3582,-1.3584,-1.3585,0,0,0,0,0,0,0,-1.3482,-1.3488,-1.3557,-1.3531,-1.353,-1.352,-1.3523,-1.3562,-1.3559,-1.3533,-1.353,-1.3535,-1.3561,-1.3572,-1.3576,-1.3638,-1.358,-1.3583,-1.3585,-1.3587,-1.3753,-1.3756,0,0,0,0,0,0,-1.3481,-1.3487,-1.3556,-1.3558,-1.3501,-1.3523,-1.3527,-1.3545,-1.3559,-1.3559,-1.3537,-1.3533,-1.3568,-1.3572,-1.3577,-1.3654,-1.3584,-1.3587,-1.3589,-1.3751,-1.3754,-1.3757,0,0,0,0,0,0,-1.3479,-1.3488,-1.3554,-1.3521,-1.3529,-1.3527,-1.3549,-1.3547,-1.3559,-1.3561,-1.3561,-1.3549,-1.3566,-1.3572,-1.3621,-1.3655,-1.3588,-1.3591,-1.3748,-1.3752,-1.3755,-1.381,0,0,0,0,0,0,-1.3477,-1.3487,-1.3512,-1.3522,-1.3531,-1.3598,-1.3551,-1.3549,-1.3565,-1.356,-1.3573,-1.3573,-1.3565,-1.3616,-1.3624,-1.3658,-1.3594,-1.3745,-1.375,-1.3754,-1.3805,-1.3815,-1.3823,0,0,0,0,0,-1.3473,-1.3527,-1.3514,-1.3522,-1.3562,-1.36,-1.3605,-1.3594,-1.3568,-1.3593,-1.3594,-1.3573,-1.365,-1.3621,-1.363,-1.3666,-1.3743,-1.3749,-1.3754,-1.3801,-1.3813,-1.3823,0,0,0,0,0,0,-1.3521,-1.3528,-1.3513,-1.3571,-1.3585,-1.3593,-1.3624,-1.3607,-1.3629,-1.3624,-1.361,-1.3613,-1.3665,-1.367,-1.3638,-1.3729,-1.3692,-1.3699,-1.3724,-1.3736,-1.3745,-1.3743,-1.3597,0,0,0,0,0,-1.3538,-1.3568,-1.3572,-1.3623,-1.3631,-1.3626,-1.3642,-1.3633,-1.3647,-1.3653,-1.3657,-1.3672,-1.3699,-1.3718,-1.3743,-1.3805,-1.3807,-1.3834,-1.3843,-1.385,-1.3857,-1.389,-1.3902,-1.3774,-1.3774,-1.3774,0,0,-1.3574,-1.3581,-1.3601,-1.3633,-1.3642,-1.3674,-1.3632,-1.3667,-1.369,-1.3658,-1.3704,-1.3708,-1.3723,-1.3778,-1.3803,-1.3784,-1.3893,-1.3857,-1.3863,-1.3866,-1.3897,-1.3909,-1.392,-1.3778,-1.3777,-1.3777,0,0,-1.3656,-1.3664,-1.3708,-1.3718,-1.3733,-1.3729,-1.374,-1.375,-1.3751,-1.3797,-1.3773,-1.38,-1.3848,-1.3859,-1.3871,-1.3956,-1.3938,-1.3965,-1.4013,-1.4045,-1.4055,-1.4064,-1.4095,-1.4106,-1.3971,-1.3972,-1.3972,0,-1.3699,-1.3746,-1.3732,-1.3769,-1.3783,-1.3755,-1.3798,-1.3809,-1.3831,-1.3842,-1.382,-1.3879,-1.3887,-1.3945,-1.3965,-1.3976,-1.3987,-1.3964,-1.4055,-1.4064,-1.4072,-1.4101,-1.4112,-1.3975,-1.3974,-1.3974,-1.3974,0,-1.3798,-1.3831,-1.3863,-1.3886,-1.3903,-1.3944,-1.3936,-1.3955,-1.3944,-1.3942,-1.3989,-1.3997,-1.4024,-1.4036,-1.4026,-1.4092,-1.408,-1.4057,-1.4019,-1.4088,-1.4115,-1.4126,-1.398,-1.3978,-1.3977,-1.3977,0,0,-1.3913,-1.3926,-1.3938,-1.3948,-1.3961,-1.3986,-1.4024,-1.405,-1.4067,-1.4083,-1.4115,-1.4155,-1.4133,-1.4147,-1.4137,-1.4165,-1.4232,-1.4138,-1.4138,-1.4156,-1.4306,-1.4324,-1.4337,-1.4219,-1.4221,-1.4223,-1.4305,0,-1.3995,-1.4062,-1.405,-1.4114,-1.4144,-1.4117,-1.415,-1.4162,-1.4161,-1.4186,-1.4185,-1.4214,-1.4183,-1.4191,-1.4218,-1.4218,-1.4262,-1.4212,-1.4249,-1.425,-1.4247,-1.4352,-1.4371,-1.4449,-1.4315,-1.4317,-1.4319,0,-1.4101,-1.412,-1.4188,-1.4196,-1.4208,-1.4238,-1.426,-1.4284,-1.4297,-1.4294,-1.4309,-1.4294,-1.4331,-1.4292,-1.4344,-1.431,-1.4324,-1.4326,-1.4329,-1.4333,-1.429,-1.4359,-1.4473,-1.4485,-1.4335,-1.4334,-1.4333,0,-1.4178,-1.4221,-1.4267,-1.4276,-1.4287,-1.4309,-1.4314,-1.4324,-1.434,-1.4359,-1.4369,-1.4392,-1.4405,-1.4423,-1.4414,-1.4386,-1.4468,-1.4428,-1.4467,-1.4467,-1.4487,-1.4486,-1.4605,-1.4494,-1.4494,-1.4494,-1.4494,0,-1.4272,-1.4315,-1.4302,-1.4331,-1.4377,-1.4363,-1.4409,-1.4411,-1.442,-1.4449,-1.4426,-1.4453,-1.4438,-1.4464,-1.4457,-1.4501,-1.4507,-1.4506,-1.4504,-1.4509,-1.4509,-1.4519,-1.4514,-1.4497,-1.4496,-1.4496,-1.4495,0,-1.4368,-1.4361,-1.4409,-1.4415,-1.4417,-1.4451,-1.4456,-1.4483,-1.4479,-1.4515,-1.4523,-1.4518,-1.4547,-1.4539,-1.4571,-1.4566,-1.4622,-1.4613,-1.4618,-1.4616,-1.4656,-1.4653,-1.4787,-1.4804,-1.4681,-1.4682,-1.4683,0,-1.4429,-1.4461,-1.447,-1.4487,-1.4494,-1.4522,-1.4537,-1.4524,-1.4541,-1.4557,-1.4582,-1.4608,-1.4629,-1.4676,-1.4676,-1.47,-1.4691,-1.4736,-1.4695,-1.4698,-1.4693,-1.4691,-1.4695,-1.4745,-1.4747,-1.4748,-1.4749,0,-1.4538,-1.4533,-1.4557,-1.4579,-1.4598,-1.4615,-1.463,-1.4645,-1.4632,-1.4652,-1.4682,-1.4698,-1.4729,-1.4756,-1.4778,-1.4783,-1.4764,-1.4762,-1.4772,-1.4778,-1.478,-1.478,-1.4642,-1.4759,-1.4758,-1.4757,-1.4757,-1.4756,-1.4619,-1.4646,-1.4656,-1.4683,-1.4692,-1.4706,-1.4731,-1.4731,-1.4755,-1.478,-1.477,-1.4803,-1.4814,-1.4841,-1.4849,-1.4874,-1.4857,-1.4872,-1.4876,-1.4881,-1.4886,-1.4775,-1.4878,-1.4878,-1.4877,-1.4877,-1.4877,0,-1.4728,-1.4733,-1.4757,-1.4778,-1.4799,-1.4778,-1.4793,-1.4812,-1.4842,-1.4853,-1.4874,-1.4907,-1.4933,-1.4934,-1.4957,-1.4978,-1.497,-1.4985,-1.4984,-1.4985,-1.49,-1.4889,-1.4991,-1.4991,-1.4991,-1.4991,-1.4991,-1.4991,-1.4787,-1.4832,-1.4828,-1.4876,-1.4881,-1.4913,-1.4923,-1.4936,-1.4945,-1.4983,-1.5004,-1.5004,-1.5011,-1.5035,-1.5057,-1.5057,-1.5067,-1.5085,-1.5082,-1.5002,-1.4991,-1.498,-1.497,-1.5088,-1.5088,-1.5165,-1.5166,-1.5166]},{"header":{"parameterUnit":"m.s-1","parameterCategory":1,"la1":30.2991,"la2":30.254,"lo1":-89.0895,"lo2":-89.0444,"dy":0.0017,"dx":0.0017,"nx":28,"ny":28,"refTime":"2024-03-16T03:00:00:Z","depth":0,"parameterNumber":3,"parameterNumberName":"V-component_of_WINDS"},"data":[0,0,0,0,0,0,0,0,0,0,0,0,0,0,0,0,0,0,0,0,0,0,0,0,0,0,0,0,0,0,0,0,0,0,0,0,0,0,0,0,0,0,0,0,0,0,0,0,0,0,0,0,0,0,0,0,0,0,-3.4008,-3.4009,0,-3.4078,-3.4079,-3.408,-3.4045,-3.4043,-3.4041,-3.4039,-3.4107,-3.4111,-3.4114,0,0,0,0,0,0,0,0,0,0,0,0,0,-3.384,-3.3843,-3.4008,-3.4009,-3.401,-3.4078,-3.4079,-3.408,-3.4045,-3.4043,-3.4041,-3.4039,-3.4106,-3.411,-3.4114,0,0,0,0,0,0,0,0,0,0,0,0,0,-3.3912,-3.3844,-3.4008,-3.4001,-3.4001,-3.4078,-3.4079,-3.408,-3.4046,-3.4043,-3.404,-3.4037,-3.4105,-3.411,-3.4115,-3.4202,0,0,-3.4131,-3.4133,0,0,0,0,0,0,0,0,-3.3907,-3.3918,-3.4001,-3.4001,-3.4002,-3.405,-3.4045,-3.4121,-3.4046,-3.4028,-3.4039,-3.4036,-3.409,-3.4096,-3.4115,-3.4205,-3.4208,-3.4131,-3.4135,-3.4137,-3.4138,0,0,0,0,0,0,0,-3.3903,-3.3914,-3.4036,-3.4002,-3.4003,-3.3993,-3.4,-3.4059,-3.4074,-3.403,-3.4027,-3.4036,-3.409,-3.411,-3.4117,-3.4209,-3.4131,-3.4136,-3.4139,-3.4141,-3.4375,-3.4378,0,0,0,0,0,0,-3.3898,-3.3911,-3.4034,-3.4038,-3.3947,-3.3998,-3.4006,-3.4037,-3.4073,-3.4076,-3.4039,-3.4034,-3.4103,-3.4111,-3.4119,-3.4225,-3.4137,-3.4142,-3.4145,-3.4372,-3.4376,-3.4379,0,0,0,0,0,0,-3.3895,-3.391,-3.4031,-3.3974,-3.3988,-3.4004,-3.4039,-3.404,-3.4061,-3.408,-3.4082,-3.4058,-3.4101,-3.4112,-3.4182,-3.4226,-3.4144,-3.4149,-3.4368,-3.4373,-3.4377,-3.4436,0,0,0,0,0,0,-3.389,-3.3909,-3.3943,-3.3975,-3.3992,-3.4094,-3.4042,-3.4043,-3.4071,-3.4066,-3.4098,-3.4101,-3.41,-3.4175,-3.4188,-3.4232,-3.4153,-3.4364,-3.437,-3.4376,-3.443,-3.4442,-3.4452,0,0,0,0,0,-3.3884,-3.3955,-3.3945,-3.396,-3.4035,-3.4097,-3.4106,-3.4105,-3.4074,-3.4108,-3.412,-3.41,-3.4219,-3.4182,-3.4196,-3.4243,-3.4362,-3.4369,-3.4375,-3.4425,-3.4439,-3.4452,0,0,0,0,0,0,-3.3927,-3.3959,-3.3948,-3.4032,-3.4062,-3.4091,-3.4134,-3.412,-3.4158,-3.4152,-3.4148,-3.4155,-3.4229,-3.4243,-3.4201,-3.433,-3.4286,-3.4296,-3.4318,-3.4332,-3.4343,-3.4338,-3.4157,0,0,0,0,0,-3.3946,-3.3995,-3.402,-3.4091,-3.4107,-3.4118,-3.4145,-3.4142,-3.4172,-3.4184,-3.4201,-3.4231,-3.4275,-3.4304,-3.4346,-3.4431,-3.4438,-3.4471,-3.4482,-3.449,-3.4499,-3.4547,-3.4562,-3.4402,-3.4401,-3.4401,0,0,-3.3986,-3.401,-3.4041,-3.4101,-3.4124,-3.4174,-3.4129,-3.4183,-3.422,-3.4192,-3.4261,-3.4274,-3.4306,-3.4385,-3.4421,-3.4399,-3.4545,-3.4499,-3.4506,-3.451,-3.4555,-3.457,-3.4584,-3.4406,-3.4405,-3.4405,0,0,-3.4084,-3.4107,-3.417,-3.4194,-3.4231,-3.4237,-3.4252,-3.4284,-3.4292,-3.4361,-3.4342,-3.4384,-3.446,-3.4485,-3.4507,-3.4615,-3.4598,-3.4629,-3.4686,-3.4732,-3.4745,-3.4756,-3.4796,-3.481,-3.4637,-3.4638,-3.4638,0,-3.4129,-3.4205,-3.4203,-3.426,-3.4287,-3.4266,-3.4329,-3.4352,-3.4399,-3.4418,-3.4393,-3.4489,-3.4509,-3.4594,-3.462,-3.4639,-3.4656,-3.4626,-3.4743,-3.4755,-3.4765,-3.4803,-3.4818,-3.4641,-3.4641,-3.464,-3.464,0,-3.4259,-3.4311,-3.4357,-3.4406,-3.4438,-3.4497,-3.4504,-3.4536,-3.453,-3.4539,-3.461,-3.4633,-3.468,-3.4699,-3.4693,-3.4783,-3.4769,-3.4744,-3.4699,-3.4784,-3.4819,-3.4834,-3.4646,-3.4645,-3.4644,-3.4643,0,0,-3.4386,-3.4434,-3.4451,-3.4473,-3.4511,-3.4552,-3.461,-3.4657,-3.4685,-3.4718,-3.4767,-3.4832,-3.481,-3.4835,-3.4831,-3.4871,-3.4957,-3.4841,-3.4842,-3.4863,-3.5059,-3.5079,-3.5095,-3.4945,-3.4948,-3.495,-3.5057,0,-3.4488,-3.4592,-3.4593,-3.4688,-3.4737,-3.4718,-3.4768,-3.4797,-3.4807,-3.4849,-3.4858,-3.4906,-3.4872,-3.4887,-3.4926,-3.4938,-3.4996,-3.493,-3.499,-3.4992,-3.4984,-3.5114,-3.5134,-3.5234,-3.507,-3.5073,-3.5074,0,-3.4621,-3.4661,-3.4762,-3.4795,-3.4815,-3.4861,-3.4905,-3.4945,-3.4977,-3.4981,-3.5011,-3.5,-3.5059,-3.5012,-3.5092,-3.5048,-3.5072,-3.5081,-3.5085,-3.5091,-3.5039,-3.5125,-3.5266,-3.5281,-3.5096,-3.5094,-3.5093,0,-3.4706,-3.4784,-3.4855,-3.4875,-3.4914,-3.4947,-3.4964,-3.4993,-3.5022,-3.506,-3.5078,-3.5121,-3.5145,-3.5178,-3.518,-3.5145,-3.5261,-3.5214,-3.5266,-3.5266,-3.5292,-3.5291,-3.544,-3.5306,-3.5306,-3.5305,-3.5305,0,-3.4821,-3.4883,-3.4894,-3.4938,-3.5007,-3.5007,-3.5075,-3.5089,-3.5116,-3.5161,-3.5145,-3.5188,-3.5187,-3.523,-3.5232,-3.5298,-3.5309,-3.5314,-3.5313,-3.5316,-3.5316,-3.5332,-3.5326,-3.5309,-3.5309,-3.5308,-3.5307,0,-3.4927,-3.4937,-3.5013,-3.5044,-3.5054,-3.5104,-3.513,-3.5171,-3.518,-3.5238,-3.5251,-3.5264,-3.5314,-3.5319,-3.5376,-3.5377,-3.5459,-3.545,-3.5449,-3.5448,-3.55,-3.5495,-3.5666,-3.5689,-3.5539,-3.554,-3.5542,0,-3.5,-3.5049,-3.5086,-3.5116,-3.5136,-3.5185,-3.5215,-3.5215,-3.5247,-3.5287,-3.5323,-3.5372,-3.5412,-3.5492,-3.5506,-3.555,-3.5543,-3.56,-3.555,-3.5551,-3.5545,-3.5543,-3.5548,-3.561,-3.5612,-3.5613,-3.5614,0,-3.513,-3.5132,-3.5177,-3.5224,-3.526,-3.5296,-3.533,-3.5355,-3.536,-3.5396,-3.5448,-3.5479,-3.5538,-3.5587,-3.563,-3.5647,-3.5632,-3.563,-3.5645,-3.5648,-3.5646,-3.5649,-3.5477,-3.5626,-3.5625,-3.5624,-3.5624,-3.5623,-3.5223,-3.5265,-3.5299,-3.5349,-3.5375,-3.5407,-3.5448,-3.5462,-3.5506,-3.5557,-3.5553,-3.5611,-3.5641,-3.5698,-3.5718,-3.5762,-3.5743,-3.5764,-3.5769,-3.5775,-3.5781,-3.5638,-3.577,-3.577,-3.5769,-3.5769,-3.5769,0,-3.5352,-3.5373,-3.5419,-3.5469,-3.5508,-3.5492,-3.5528,-3.5562,-3.5614,-3.5644,-3.5683,-3.5743,-3.5791,-3.5809,-3.5855,-3.5887,-3.5881,-3.5899,-3.5897,-3.5901,-3.5795,-3.5778,-3.5903,-3.5903,-3.5903,-3.5903,-3.5903,-3.5903,-3.5425,-3.5496,-3.5503,-3.5587,-3.5606,-3.5665,-3.5687,-3.5717,-3.5741,-3.5809,-3.585,-3.5861,-3.5887,-3.5935,-3.5977,-3.5981,-3.5999,-3.602,-3.6021,-3.5922,-3.5908,-3.5896,-3.588,-3.6024,-3.6024,-3.6124,-3.6125,-3.6126]}]]